Year,Month,Day,Hour,Minute,Value (Times are PST for temperature in C)
2016,02,09,00,00,6.40
2016,02,09,00,01,6.40
2016,02,09,00,02,6.40
2016,02,09,00,03,6.30
2016,02,09,00,04,6.40
2016,02,09,00,05,6.40
2016,02,09,00,06,6.40
2016,02,09,00,07,6.40
2016,02,09,00,08,6.40
2016,02,09,00,09,6.40
2016,02,09,00,10,6.50
2016,02,09,00,11,6.50
2016,02,09,00,12,6.50
2016,02,09,00,13,6.50
2016,02,09,00,14,6.50
2016,02,09,00,15,6.50
2016,02,09,00,16,6.50
2016,02,09,00,17,6.60
2016,02,09,00,18,6.60
2016,02,09,00,19,6.60
2016,02,09,00,20,6.60
2016,02,09,00,21,6.60
2016,02,09,00,22,6.60
2016,02,09,00,23,6.70
2016,02,09,00,24,6.70
2016,02,09,00,25,6.70
2016,02,09,00,26,6.80
2016,02,09,00,27,7.00
2016,02,09,00,28,7.30
2016,02,09,00,29,7.50
2016,02,09,00,30,7.80
2016,02,09,00,31,7.90
2016,02,09,00,32,8.10
2016,02,09,00,33,8.20
2016,02,09,00,34,8.30
2016,02,09,00,35,8.30
2016,02,09,00,36,8.40
2016,02,09,00,37,8.40
2016,02,09,00,38,8.40
2016,02,09,00,39,8.50
2016,02,09,00,40,8.60
2016,02,09,00,41,8.60
2016,02,09,00,42,8.70
2016,02,09,00,43,8.80
2016,02,09,00,44,8.80
2016,02,09,00,45,8.80
2016,02,09,00,46,8.80
2016,02,09,00,47,8.80
2016,02,09,00,48,8.80
2016,02,09,00,49,8.90
2016,02,09,00,50,8.90
2016,02,09,00,51,8.90
2016,02,09,00,52,8.90
2016,02,09,00,53,9.00
2016,02,09,00,54,9.00
2016,02,09,00,55,9.00
2016,02,09,00,56,9.00
2016,02,09,00,57,9.00
2016,02,09,00,58,8.90
2016,02,09,00,59,8.90
2016,02,09,01,00,8.80
2016,02,09,01,01,8.70
2016,02,09,01,02,8.60
2016,02,09,01,03,8.50
2016,02,09,01,04,8.50
2016,02,09,01,05,8.40
2016,02,09,01,06,8.30
2016,02,09,01,07,8.20
2016,02,09,01,08,8.10
2016,02,09,01,09,8.00
2016,02,09,01,10,8.00
2016,02,09,01,11,7.90
2016,02,09,01,12,7.80
2016,02,09,01,13,7.70
2016,02,09,01,14,7.70
2016,02,09,01,15,7.60
2016,02,09,01,16,7.60
2016,02,09,01,17,7.50
2016,02,09,01,18,7.50
2016,02,09,01,19,7.50
2016,02,09,01,20,7.40
2016,02,09,01,21,7.40
2016,02,09,01,22,7.40
2016,02,09,01,23,7.40
2016,02,09,01,24,7.40
2016,02,09,01,25,7.30
2016,02,09,01,26,7.30
2016,02,09,01,27,7.30
2016,02,09,01,28,7.30
2016,02,09,01,29,7.20
2016,02,09,01,30,7.20
2016,02,09,01,31,7.20
2016,02,09,01,32,7.20
2016,02,09,01,33,7.20
2016,02,09,01,34,7.20
2016,02,09,01,35,7.20
2016,02,09,01,36,7.20
2016,02,09,01,37,7.10
2016,02,09,01,38,7.10
2016,02,09,01,39,7.10
2016,02,09,01,40,7.10
2016,02,09,01,41,7.10
2016,02,09,01,42,7.00
2016,02,09,01,43,7.00
2016,02,09,01,44,7.00
2016,02,09,01,45,7.00
2016,02,09,01,46,7.00
2016,02,09,01,47,7.00
2016,02,09,01,48,6.90
2016,02,09,01,49,6.90
2016,02,09,01,50,6.90
2016,02,09,01,51,6.90
2016,02,09,01,52,6.80
2016,02,09,01,53,6.60
2016,02,09,01,54,6.50
2016,02,09,01,55,6.40
2016,02,09,01,56,6.30
2016,02,09,01,57,6.30
2016,02,09,01,58,6.30
2016,02,09,01,59,6.30
2016,02,09,02,00,6.30
2016,02,09,02,01,6.30
2016,02,09,02,02,6.30
2016,02,09,02,03,6.30
2016,02,09,02,04,6.40
2016,02,09,02,05,6.40
2016,02,09,02,06,6.40
2016,02,09,02,07,6.40
2016,02,09,02,08,6.40
2016,02,09,02,09,6.40
2016,02,09,02,10,6.40
2016,02,09,02,11,6.40
2016,02,09,02,12,6.40
2016,02,09,02,13,6.40
2016,02,09,02,14,6.50
2016,02,09,02,15,6.50
2016,02,09,02,16,6.50
2016,02,09,02,17,6.50
2016,02,09,02,18,6.60
2016,02,09,02,19,6.50
2016,02,09,02,20,6.60
2016,02,09,02,21,6.60
2016,02,09,02,22,6.60
2016,02,09,02,23,6.50
2016,02,09,02,24,6.50
2016,02,09,02,25,6.50
2016,02,09,02,26,6.50
2016,02,09,02,27,6.60
2016,02,09,02,28,6.60
2016,02,09,02,29,6.60
2016,02,09,02,30,6.70
2016,02,09,02,31,6.70
2016,02,09,02,32,6.70
2016,02,09,02,33,6.70
2016,02,09,02,34,6.70
2016,02,09,02,35,6.70
2016,02,09,02,36,6.70
2016,02,09,02,37,6.60
2016,02,09,02,38,6.60
2016,02,09,02,39,6.60
2016,02,09,02,40,6.60
2016,02,09,02,41,6.60
2016,02,09,02,42,6.60
2016,02,09,02,43,6.60
2016,02,09,02,44,6.60
2016,02,09,02,45,6.60
2016,02,09,02,46,6.60
2016,02,09,02,47,6.60
2016,02,09,02,48,6.50
2016,02,09,02,49,6.50
2016,02,09,02,50,6.60
2016,02,09,02,51,6.60
2016,02,09,02,52,6.50
2016,02,09,02,53,6.50
2016,02,09,02,54,6.50
2016,02,09,02,55,6.40
2016,02,09,02,56,6.30
2016,02,09,02,57,6.30
2016,02,09,02,58,6.30
2016,02,09,02,59,6.20
2016,02,09,03,00,6.20
2016,02,09,03,01,6.20
2016,02,09,03,02,6.10
2016,02,09,03,03,6.10
2016,02,09,03,04,6.10
2016,02,09,03,05,6.10
2016,02,09,03,06,6.10
2016,02,09,03,07,6.10
2016,02,09,03,08,6.00
2016,02,09,03,09,5.90
2016,02,09,03,10,5.80
2016,02,09,03,11,5.80
2016,02,09,03,12,5.70
2016,02,09,03,13,5.70
2016,02,09,03,14,5.80
2016,02,09,03,15,5.80
2016,02,09,03,16,5.80
2016,02,09,03,17,6.00
2016,02,09,03,18,6.00
2016,02,09,03,19,6.10
2016,02,09,03,20,6.00
2016,02,09,03,21,6.00
2016,02,09,03,22,5.90
2016,02,09,03,23,5.90
2016,02,09,03,24,6.00
2016,02,09,03,25,6.00
2016,02,09,03,26,6.10
2016,02,09,03,27,6.20
2016,02,09,03,28,6.30
2016,02,09,03,29,6.40
2016,02,09,03,30,6.40
2016,02,09,03,31,6.60
2016,02,09,03,32,6.70
2016,02,09,03,33,6.70
2016,02,09,03,34,6.70
2016,02,09,03,35,6.80
2016,02,09,03,36,6.80
2016,02,09,03,37,6.90
2016,02,09,03,38,6.90
2016,02,09,03,39,7.00
2016,02,09,03,40,6.90
2016,02,09,03,41,6.90
2016,02,09,03,42,6.90
2016,02,09,03,43,6.90
2016,02,09,03,44,7.00
2016,02,09,03,45,7.00
2016,02,09,03,46,7.10
2016,02,09,03,47,7.10
2016,02,09,03,48,7.10
2016,02,09,03,49,7.10
2016,02,09,03,50,7.10
2016,02,09,03,51,7.10
2016,02,09,03,52,7.10
2016,02,09,03,53,7.10
2016,02,09,03,54,7.00
2016,02,09,03,55,7.00
2016,02,09,03,56,6.90
2016,02,09,03,57,6.80
2016,02,09,03,58,6.70
2016,02,09,03,59,6.70
2016,02,09,04,00,6.70
2016,02,09,04,01,6.80
2016,02,09,04,02,6.80
2016,02,09,04,03,6.90
2016,02,09,04,04,6.90
2016,02,09,04,05,6.90
2016,02,09,04,06,6.90
2016,02,09,04,07,7.00
2016,02,09,04,08,7.00
2016,02,09,04,09,7.10
2016,02,09,04,10,7.20
2016,02,09,04,11,7.20
2016,02,09,04,12,7.30
2016,02,09,04,13,7.30
2016,02,09,04,14,7.40
2016,02,09,04,15,7.40
2016,02,09,04,16,7.40
2016,02,09,04,17,7.50
2016,02,09,04,18,7.50
2016,02,09,04,19,7.50
2016,02,09,04,20,7.50
2016,02,09,04,21,7.60
2016,02,09,04,22,7.60
2016,02,09,04,23,7.60
2016,02,09,04,24,7.70
2016,02,09,04,25,7.70
2016,02,09,04,26,7.70
2016,02,09,04,27,7.70
2016,02,09,04,28,7.80
2016,02,09,04,29,7.80
2016,02,09,04,30,7.90
2016,02,09,04,31,8.00
2016,02,09,04,32,8.10
2016,02,09,04,33,8.10
2016,02,09,04,34,8.20
2016,02,09,04,35,8.30
2016,02,09,04,36,8.30
2016,02,09,04,37,8.40
2016,02,09,04,38,8.50
2016,02,09,04,39,8.50
2016,02,09,04,40,8.60
2016,02,09,04,41,8.60
2016,02,09,04,42,8.70
2016,02,09,04,43,8.70
2016,02,09,04,44,8.80
2016,02,09,04,45,8.80
2016,02,09,04,46,8.80
2016,02,09,04,47,8.90
2016,02,09,04,48,8.90
2016,02,09,04,49,9.00
2016,02,09,04,50,9.00
2016,02,09,04,51,9.00
2016,02,09,04,52,9.10
2016,02,09,04,53,9.10
2016,02,09,04,54,9.10
2016,02,09,04,55,9.20
2016,02,09,04,56,9.20
2016,02,09,04,57,9.20
2016,02,09,04,58,9.20
2016,02,09,04,59,9.20
2016,02,09,05,00,9.20
2016,02,09,05,01,9.20
2016,02,09,05,02,9.20
2016,02,09,05,03,9.20
2016,02,09,05,04,9.20
2016,02,09,05,05,9.20
2016,02,09,05,06,9.20
2016,02,09,05,07,9.20
2016,02,09,05,08,9.20
2016,02,09,05,09,9.20
2016,02,09,05,10,9.20
2016,02,09,05,11,9.20
2016,02,09,05,12,9.20
2016,02,09,05,13,9.20
2016,02,09,05,14,9.10
2016,02,09,05,15,9.10
2016,02,09,05,16,9.10
2016,02,09,05,17,9.00
2016,02,09,05,18,9.00
2016,02,09,05,19,8.90
2016,02,09,05,20,8.80
2016,02,09,05,21,8.80
2016,02,09,05,22,8.70
2016,02,09,05,23,8.60
2016,02,09,05,24,8.60
2016,02,09,05,25,8.50
2016,02,09,05,26,8.50
2016,02,09,05,27,8.50
2016,02,09,05,28,8.40
2016,02,09,05,29,8.40
2016,02,09,05,30,8.40
2016,02,09,05,31,8.30
2016,02,09,05,32,8.30
2016,02,09,05,33,8.30
2016,02,09,05,34,8.30
2016,02,09,05,35,8.20
2016,02,09,05,36,8.20
2016,02,09,05,37,8.20
2016,02,09,05,38,8.20
2016,02,09,05,39,8.10
2016,02,09,05,40,8.10
2016,02,09,05,41,8.10
2016,02,09,05,42,8.00
2016,02,09,05,43,8.00
2016,02,09,05,44,7.90
2016,02,09,05,45,7.90
2016,02,09,05,46,7.90
2016,02,09,05,47,7.80
2016,02,09,05,48,7.80
2016,02,09,05,49,7.80
2016,02,09,05,50,7.80
2016,02,09,05,51,7.80
2016,02,09,05,52,7.80
2016,02,09,05,53,7.70
2016,02,09,05,54,7.70
2016,02,09,05,55,7.70
2016,02,09,05,56,7.70
2016,02,09,05,57,7.70
2016,02,09,05,58,7.70
2016,02,09,05,59,7.70
2016,02,09,06,00,7.70
2016,02,09,06,01,7.70
2016,02,09,06,02,7.60
2016,02,09,06,03,7.60
2016,02,09,06,04,7.60
2016,02,09,06,05,7.60
2016,02,09,06,06,7.60
2016,02,09,06,07,7.60
2016,02,09,06,08,7.60
2016,02,09,06,09,7.50
2016,02,09,06,10,7.50
2016,02,09,06,11,7.40
2016,02,09,06,12,7.40
2016,02,09,06,13,7.40
2016,02,09,06,14,7.40
2016,02,09,06,15,7.50
2016,02,09,06,16,7.50
2016,02,09,06,17,7.50
2016,02,09,06,18,7.50
2016,02,09,06,19,7.40
2016,02,09,06,20,7.30
2016,02,09,06,21,7.20
2016,02,09,06,22,7.30
2016,02,09,06,23,7.30
2016,02,09,06,24,7.30
2016,02,09,06,25,7.30
2016,02,09,06,26,7.20
2016,02,09,06,27,7.20
2016,02,09,06,28,7.10
2016,02,09,06,29,7.10
2016,02,09,06,30,7.20
2016,02,09,06,31,7.20
2016,02,09,06,32,7.20
2016,02,09,06,33,7.20
2016,02,09,06,34,7.20
2016,02,09,06,35,7.20
2016,02,09,06,36,7.20
2016,02,09,06,37,7.20
2016,02,09,06,38,7.20
2016,02,09,06,39,7.30
2016,02,09,06,40,7.50
2016,02,09,06,41,7.60
2016,02,09,06,42,7.70
2016,02,09,06,43,7.80
2016,02,09,06,44,7.90
2016,02,09,06,45,8.00
2016,02,09,06,46,8.10
2016,02,09,06,47,8.10
2016,02,09,06,48,8.20
2016,02,09,06,49,8.20
2016,02,09,06,50,8.20
2016,02,09,06,51,8.10
2016,02,09,06,52,8.10
2016,02,09,06,53,8.10
2016,02,09,06,54,8.10
2016,02,09,06,55,8.00
2016,02,09,06,56,8.00
2016,02,09,06,57,7.90
2016,02,09,06,58,7.90
2016,02,09,06,59,7.90
2016,02,09,07,00,7.80
2016,02,09,07,01,7.80
2016,02,09,07,02,7.80
2016,02,09,07,03,7.80
2016,02,09,07,04,7.80
2016,02,09,07,05,7.80
2016,02,09,07,06,7.80
2016,02,09,07,07,7.80
2016,02,09,07,08,7.80
2016,02,09,07,09,7.70
2016,02,09,07,10,7.70
2016,02,09,07,11,7.70
2016,02,09,07,12,7.70
2016,02,09,07,13,7.70
2016,02,09,07,14,7.60
2016,02,09,07,15,7.60
2016,02,09,07,16,7.60
2016,02,09,07,17,7.60
2016,02,09,07,18,7.60
2016,02,09,07,19,7.50
2016,02,09,07,20,7.50
2016,02,09,07,21,7.50
2016,02,09,07,22,7.40
2016,02,09,07,23,7.40
2016,02,09,07,24,7.40
2016,02,09,07,25,7.50
2016,02,09,07,26,7.50
2016,02,09,07,27,7.60
2016,02,09,07,28,7.60
2016,02,09,07,29,7.70
2016,02,09,07,30,7.70
2016,02,09,07,31,7.80
2016,02,09,07,32,7.80
2016,02,09,07,33,7.80
2016,02,09,07,34,7.80
2016,02,09,07,35,7.80
2016,02,09,07,36,7.80
2016,02,09,07,37,7.80
2016,02,09,07,38,7.70
2016,02,09,07,39,7.70
2016,02,09,07,40,7.70
2016,02,09,07,41,7.60
2016,02,09,07,42,7.60
2016,02,09,07,43,7.60
2016,02,09,07,44,7.60
2016,02,09,07,45,7.60
2016,02,09,07,46,7.60
2016,02,09,07,47,7.60
2016,02,09,07,48,7.60
2016,02,09,07,49,7.60
2016,02,09,07,50,7.60
2016,02,09,07,51,7.60
2016,02,09,07,52,7.60
2016,02,09,07,53,7.60
2016,02,09,07,54,7.60
2016,02,09,07,55,7.60
2016,02,09,07,56,7.50
2016,02,09,07,57,7.50
2016,02,09,07,58,7.50
2016,02,09,07,59,7.50
2016,02,09,08,00,7.50
2016,02,09,08,01,7.50
2016,02,09,08,02,7.50
2016,02,09,08,03,7.50
2016,02,09,08,04,7.50
2016,02,09,08,05,7.50
2016,02,09,08,06,7.50
2016,02,09,08,07,7.50
2016,02,09,08,08,7.50
2016,02,09,08,09,7.50
2016,02,09,08,10,7.60
2016,02,09,08,11,7.60
2016,02,09,08,12,7.60
2016,02,09,08,13,7.60
2016,02,09,08,14,7.60
2016,02,09,08,15,7.70
2016,02,09,08,16,7.70
2016,02,09,08,17,7.70
2016,02,09,08,18,7.70
2016,02,09,08,19,7.70
2016,02,09,08,20,7.70
2016,02,09,08,21,7.80
2016,02,09,08,22,7.80
2016,02,09,08,23,7.80
2016,02,09,08,24,7.80
2016,02,09,08,25,7.80
2016,02,09,08,26,7.80
2016,02,09,08,27,7.80
2016,02,09,08,28,7.80
2016,02,09,08,29,7.80
2016,02,09,08,30,7.80
2016,02,09,08,31,7.80
2016,02,09,08,32,7.80
2016,02,09,08,33,7.80
2016,02,09,08,34,7.80
2016,02,09,08,35,7.80
2016,02,09,08,36,7.80
2016,02,09,08,37,7.80
2016,02,09,08,38,7.80
2016,02,09,08,39,7.90
2016,02,09,08,40,7.90
2016,02,09,08,41,7.90
2016,02,09,08,42,7.90
2016,02,09,08,43,8.00
2016,02,09,08,44,8.10
2016,02,09,08,45,8.10
2016,02,09,08,46,8.10
2016,02,09,08,47,8.10
2016,02,09,08,48,8.20
2016,02,09,08,49,8.30
2016,02,09,08,50,8.30
2016,02,09,08,51,8.40
2016,02,09,08,52,8.40
2016,02,09,08,53,8.50
2016,02,09,08,54,8.50
2016,02,09,08,55,8.60
2016,02,09,08,56,8.70
2016,02,09,08,57,8.70
2016,02,09,08,58,8.80
2016,02,09,08,59,8.80
2016,02,09,09,00,8.90
2016,02,09,09,01,9.00
2016,02,09,09,02,9.00
2016,02,09,09,03,9.10
2016,02,09,09,04,9.20
2016,02,09,09,05,9.20
2016,02,09,09,06,9.30
2016,02,09,09,07,9.30
2016,02,09,09,08,9.40
2016,02,09,09,09,9.40
2016,02,09,09,10,9.50
2016,02,09,09,11,9.60
2016,02,09,09,12,9.60
2016,02,09,09,13,9.60
2016,02,09,09,14,9.70
2016,02,09,09,15,9.70
2016,02,09,09,16,9.80
2016,02,09,09,17,9.80
2016,02,09,09,18,9.90
2016,02,09,09,19,10.00
2016,02,09,09,20,10.00
2016,02,09,09,21,10.10
2016,02,09,09,22,10.20
2016,02,09,09,23,10.30
2016,02,09,09,24,10.40
2016,02,09,09,25,10.50
2016,02,09,09,26,10.60
2016,02,09,09,27,10.70
2016,02,09,09,28,10.80
2016,02,09,09,29,10.90
2016,02,09,09,30,11.00
2016,02,09,09,31,11.00
2016,02,09,09,32,11.00
2016,02,09,09,33,11.00
2016,02,09,09,34,11.10
2016,02,09,09,35,11.10
2016,02,09,09,36,11.20
2016,02,09,09,37,11.30
2016,02,09,09,38,11.30
2016,02,09,09,39,11.30
2016,02,09,09,40,11.40
2016,02,09,09,41,11.50
2016,02,09,09,42,11.50
2016,02,09,09,43,11.60
2016,02,09,09,44,11.60
2016,02,09,09,45,11.70
2016,02,09,09,46,11.80
2016,02,09,09,47,11.80
2016,02,09,09,48,11.90
2016,02,09,09,49,11.90
2016,02,09,09,50,12.00
2016,02,09,09,51,12.10
2016,02,09,09,52,12.20
2016,02,09,09,53,12.30
2016,02,09,09,54,12.40
2016,02,09,09,55,12.40
2016,02,09,09,56,12.50
2016,02,09,09,57,12.60
2016,02,09,09,58,12.70
2016,02,09,09,59,12.70
2016,02,09,10,00,12.80
2016,02,09,10,01,12.80
2016,02,09,10,02,12.80
2016,02,09,10,03,12.80
2016,02,09,10,04,12.80
2016,02,09,10,05,12.80
2016,02,09,10,06,12.80
2016,02,09,10,07,12.90
2016,02,09,10,08,12.90
2016,02,09,10,09,12.90
2016,02,09,10,10,13.00
2016,02,09,10,11,13.00
2016,02,09,10,12,13.10
2016,02,09,10,13,13.20
2016,02,09,10,14,13.20
2016,02,09,10,15,13.30
2016,02,09,10,16,13.30
2016,02,09,10,17,13.40
2016,02,09,10,18,13.40
2016,02,09,10,19,13.40
2016,02,09,10,20,13.50
2016,02,09,10,21,13.50
2016,02,09,10,22,13.60
2016,02,09,10,23,13.60
2016,02,09,10,24,13.60
2016,02,09,10,25,13.70
2016,02,09,10,26,13.70
2016,02,09,10,27,13.60
2016,02,09,10,28,13.60
2016,02,09,10,29,13.50
2016,02,09,10,30,13.50
2016,02,09,10,31,13.50
2016,02,09,10,32,13.50
2016,02,09,10,33,13.50
2016,02,09,10,34,13.50
2016,02,09,10,35,13.60
2016,02,09,10,36,13.60
2016,02,09,10,37,13.70
2016,02,09,10,38,13.70
2016,02,09,10,39,13.80
2016,02,09,10,40,13.80
2016,02,09,10,41,13.90
2016,02,09,10,42,14.00
2016,02,09,10,43,14.00
2016,02,09,10,44,14.10
2016,02,09,10,45,14.10
2016,02,09,10,46,14.00
2016,02,09,10,47,14.00
2016,02,09,10,48,13.90
2016,02,09,10,49,13.80
2016,02,09,10,50,13.80
2016,02,09,10,51,13.80
2016,02,09,10,52,13.70
2016,02,09,10,53,13.70
2016,02,09,10,54,13.80
2016,02,09,10,55,13.90
2016,02,09,10,56,14.00
2016,02,09,10,57,14.20
2016,02,09,10,58,14.30
2016,02,09,10,59,14.50
2016,02,09,11,00,14.70
2016,02,09,11,01,14.90
2016,02,09,11,02,15.00
2016,02,09,11,03,15.10
2016,02,09,11,04,15.20
2016,02,09,11,05,15.30
2016,02,09,11,06,15.40
2016,02,09,11,07,15.50
2016,02,09,11,08,15.60
2016,02,09,11,09,15.70
2016,02,09,11,10,15.80
2016,02,09,11,11,15.80
2016,02,09,11,12,15.90
2016,02,09,11,13,16.00
2016,02,09,11,14,16.10
2016,02,09,11,15,16.10
2016,02,09,11,16,16.20
2016,02,09,11,17,16.20
2016,02,09,11,18,16.30
2016,02,09,11,19,16.30
2016,02,09,11,20,16.30
2016,02,09,11,21,16.30
2016,02,09,11,22,16.40
2016,02,09,11,23,16.40
2016,02,09,11,24,16.40
2016,02,09,11,25,16.40
2016,02,09,11,26,16.40
2016,02,09,11,27,16.30
2016,02,09,11,28,16.30
2016,02,09,11,29,16.30
2016,02,09,11,30,16.30
2016,02,09,11,31,16.30
2016,02,09,11,32,16.40
2016,02,09,11,33,16.40
2016,02,09,11,34,16.40
2016,02,09,11,35,16.50
2016,02,09,11,36,16.50
2016,02,09,11,37,16.60
2016,02,09,11,38,16.70
2016,02,09,11,39,16.80
2016,02,09,11,40,16.80
2016,02,09,11,41,16.90
2016,02,09,11,42,17.00
2016,02,09,11,43,17.00
2016,02,09,11,44,17.10
2016,02,09,11,45,17.20
2016,02,09,11,46,17.20
2016,02,09,11,47,17.30
2016,02,09,11,48,17.30
2016,02,09,11,49,17.30
2016,02,09,11,50,17.30
2016,02,09,11,51,17.30
2016,02,09,11,52,17.30
2016,02,09,11,53,17.40
2016,02,09,11,54,17.40
2016,02,09,11,55,17.40
2016,02,09,11,56,17.40
2016,02,09,11,57,17.40
2016,02,09,11,58,17.40
2016,02,09,11,59,17.40
2016,02,09,12,00,17.40
2016,02,09,12,01,17.40
2016,02,09,12,02,17.40
2016,02,09,12,03,17.40
2016,02,09,12,04,17.30
2016,02,09,12,05,17.30
2016,02,09,12,06,17.40
2016,02,09,12,07,17.40
2016,02,09,12,08,17.40
2016,02,09,12,09,17.40
2016,02,09,12,10,17.50
2016,02,09,12,11,17.60
2016,02,09,12,12,17.60
2016,02,09,12,13,17.70
2016,02,09,12,14,17.70
2016,02,09,12,15,17.80
2016,02,09,12,16,17.80
2016,02,09,12,17,17.90
2016,02,09,12,18,17.90
2016,02,09,12,19,18.00
2016,02,09,12,20,18.00
2016,02,09,12,21,18.00
2016,02,09,12,22,18.00
2016,02,09,12,23,18.00
2016,02,09,12,24,18.00
2016,02,09,12,25,18.00
2016,02,09,12,26,18.00
2016,02,09,12,27,18.00
2016,02,09,12,28,18.00
2016,02,09,12,29,18.00
2016,02,09,12,30,18.00
2016,02,09,12,31,18.00
2016,02,09,12,32,18.00
2016,02,09,12,33,18.10
2016,02,09,12,34,18.10
2016,02,09,12,35,18.20
2016,02,09,12,36,18.20
2016,02,09,12,37,18.30
2016,02,09,12,38,18.30
2016,02,09,12,39,18.40
2016,02,09,12,40,18.50
2016,02,09,12,41,18.50
2016,02,09,12,42,18.60
2016,02,09,12,43,18.60
2016,02,09,12,44,18.70
2016,02,09,12,45,18.70
2016,02,09,12,46,18.70
2016,02,09,12,47,18.70
2016,02,09,12,48,18.70
2016,02,09,12,49,18.70
2016,02,09,12,50,18.70
2016,02,09,12,51,18.70
2016,02,09,12,52,18.70
2016,02,09,12,53,18.70
2016,02,09,12,54,18.70
2016,02,09,12,55,18.60
2016,02,09,12,56,18.60
2016,02,09,12,57,18.60
2016,02,09,12,58,18.50
2016,02,09,12,59,18.50
2016,02,09,13,00,18.40
2016,02,09,13,01,18.40
2016,02,09,13,02,18.40
2016,02,09,13,03,18.40
2016,02,09,13,04,18.40
2016,02,09,13,05,18.30
2016,02,09,13,06,18.30
2016,02,09,13,07,18.30
2016,02,09,13,08,18.30
2016,02,09,13,09,18.30
2016,02,09,13,10,18.30
2016,02,09,13,11,18.30
2016,02,09,13,12,18.30
2016,02,09,13,13,18.40
2016,02,09,13,14,18.40
2016,02,09,13,15,18.50
2016,02,09,13,16,18.50
2016,02,09,13,17,18.60
2016,02,09,13,18,18.60
2016,02,09,13,19,18.60
2016,02,09,13,20,18.60
2016,02,09,13,21,18.70
2016,02,09,13,22,18.70
2016,02,09,13,23,18.70
2016,02,09,13,24,18.80
2016,02,09,13,25,18.80
2016,02,09,13,26,18.90
2016,02,09,13,27,18.90
2016,02,09,13,28,18.90
2016,02,09,13,29,18.90
2016,02,09,13,30,18.90
2016,02,09,13,31,18.90
2016,02,09,13,32,18.90
2016,02,09,13,33,18.90
2016,02,09,13,34,18.90
2016,02,09,13,35,18.90
2016,02,09,13,36,18.90
2016,02,09,13,37,19.00
2016,02,09,13,38,19.00
2016,02,09,13,39,19.00
2016,02,09,13,40,18.90
2016,02,09,13,41,18.90
2016,02,09,13,42,18.90
2016,02,09,13,43,18.90
2016,02,09,13,44,18.90
2016,02,09,13,45,18.90
2016,02,09,13,46,18.90
2016,02,09,13,47,18.90
2016,02,09,13,48,18.90
2016,02,09,13,49,18.90
2016,02,09,13,50,18.90
2016,02,09,13,51,18.90
2016,02,09,13,52,18.90
2016,02,09,13,53,18.90
2016,02,09,13,54,18.90
2016,02,09,13,55,19.00
2016,02,09,13,56,19.00
2016,02,09,13,57,19.00
2016,02,09,13,58,19.10
2016,02,09,13,59,19.10
2016,02,09,14,00,19.10
2016,02,09,14,01,19.10
2016,02,09,14,02,19.10
2016,02,09,14,03,19.10
2016,02,09,14,04,19.10
2016,02,09,14,05,19.20
2016,02,09,14,06,19.20
2016,02,09,14,07,19.20
2016,02,09,14,08,19.20
2016,02,09,14,09,19.20
2016,02,09,14,10,19.20
2016,02,09,14,11,19.20
2016,02,09,14,12,19.10
2016,02,09,14,13,19.10
2016,02,09,14,14,19.10
2016,02,09,14,15,19.10
2016,02,09,14,16,19.10
2016,02,09,14,17,19.10
2016,02,09,14,18,19.10
2016,02,09,14,19,19.10
2016,02,09,14,20,19.10
2016,02,09,14,21,19.10
2016,02,09,14,22,19.10
2016,02,09,14,23,19.10
2016,02,09,14,24,19.20
2016,02,09,14,25,19.20
2016,02,09,14,26,19.20
2016,02,09,14,27,19.20
2016,02,09,14,28,19.20
2016,02,09,14,29,19.20
2016,02,09,14,30,19.20
2016,02,09,14,31,19.20
2016,02,09,14,32,19.20
2016,02,09,14,33,19.20
2016,02,09,14,34,19.20
2016,02,09,14,35,19.20
2016,02,09,14,36,19.20
2016,02,09,14,37,19.20
2016,02,09,14,38,19.20
2016,02,09,14,39,19.20
2016,02,09,14,40,19.20
2016,02,09,14,41,19.20
2016,02,09,14,42,19.20
2016,02,09,14,43,19.20
2016,02,09,14,44,19.20
2016,02,09,14,45,19.20
2016,02,09,14,46,19.20
2016,02,09,14,47,19.20
2016,02,09,14,48,19.10
2016,02,09,14,49,19.10
2016,02,09,14,50,19.10
2016,02,09,14,51,19.10
2016,02,09,14,52,19.00
2016,02,09,14,53,19.00
2016,02,09,14,54,18.90
2016,02,09,14,55,18.90
2016,02,09,14,56,18.90
2016,02,09,14,57,18.90
2016,02,09,14,58,18.90
2016,02,09,14,59,18.80
2016,02,09,15,00,18.80
2016,02,09,15,01,18.80
2016,02,09,15,02,18.80
2016,02,09,15,03,18.80
2016,02,09,15,04,18.80
2016,02,09,15,05,18.80
2016,02,09,15,06,18.70
2016,02,09,15,07,18.70
2016,02,09,15,08,18.70
2016,02,09,15,09,18.60
2016,02,09,15,10,18.60
2016,02,09,15,11,18.60
2016,02,09,15,12,18.50
2016,02,09,15,13,18.50
2016,02,09,15,14,18.40
2016,02,09,15,15,18.40
2016,02,09,15,16,18.30
2016,02,09,15,17,18.30
2016,02,09,15,18,18.20
2016,02,09,15,19,18.20
2016,02,09,15,20,18.10
2016,02,09,15,21,18.10
2016,02,09,15,22,18.00
2016,02,09,15,23,18.00
2016,02,09,15,24,17.90
2016,02,09,15,25,17.90
2016,02,09,15,26,17.90
2016,02,09,15,27,17.90
2016,02,09,15,28,17.90
2016,02,09,15,29,17.90
2016,02,09,15,30,17.90
2016,02,09,15,31,17.90
2016,02,09,15,32,17.90
2016,02,09,15,33,17.80
2016,02,09,15,34,17.80
2016,02,09,15,35,17.80
2016,02,09,15,36,17.80
2016,02,09,15,37,17.70
2016,02,09,15,38,17.70
2016,02,09,15,39,17.70
2016,02,09,15,40,17.70
2016,02,09,15,41,17.70
2016,02,09,15,42,17.70
2016,02,09,15,43,17.60
2016,02,09,15,44,17.60
2016,02,09,15,45,17.60
2016,02,09,15,46,17.60
2016,02,09,15,47,17.60
2016,02,09,15,48,17.60
2016,02,09,15,49,17.60
2016,02,09,15,50,17.60
2016,02,09,15,51,17.60
2016,02,09,15,52,17.60
2016,02,09,15,53,17.60
2016,02,09,15,54,17.60
2016,02,09,15,55,17.60
2016,02,09,15,56,17.60
2016,02,09,15,57,17.60
2016,02,09,15,58,17.60
2016,02,09,15,59,17.50
2016,02,09,16,00,17.50
2016,02,09,16,01,17.50
2016,02,09,16,02,17.50
2016,02,09,16,03,17.40
2016,02,09,16,04,17.40
2016,02,09,16,05,17.40
2016,02,09,16,06,17.40
2016,02,09,16,07,17.40
2016,02,09,16,08,17.40
2016,02,09,16,09,17.40
2016,02,09,16,10,17.30
2016,02,09,16,11,17.30
2016,02,09,16,12,17.30
2016,02,09,16,13,17.30
2016,02,09,16,14,17.30
2016,02,09,16,15,17.30
2016,02,09,16,16,17.30
2016,02,09,16,17,17.30
2016,02,09,16,18,17.30
2016,02,09,16,19,17.30
2016,02,09,16,20,17.30
2016,02,09,16,21,17.30
2016,02,09,16,22,17.30
2016,02,09,16,23,17.20
2016,02,09,16,24,17.20
2016,02,09,16,25,17.20
2016,02,09,16,26,17.20
2016,02,09,16,27,17.20
2016,02,09,16,28,17.10
2016,02,09,16,29,17.10
2016,02,09,16,30,17.10
2016,02,09,16,31,17.10
2016,02,09,16,32,17.00
2016,02,09,16,33,17.00
2016,02,09,16,34,16.90
2016,02,09,16,35,16.90
2016,02,09,16,36,16.90
2016,02,09,16,37,16.80
2016,02,09,16,38,16.80
2016,02,09,16,39,16.80
2016,02,09,16,40,16.70
2016,02,09,16,41,16.70
2016,02,09,16,42,16.60
2016,02,09,16,43,16.60
2016,02,09,16,44,16.60
2016,02,09,16,45,16.50
2016,02,09,16,46,16.40
2016,02,09,16,47,16.40
2016,02,09,16,48,16.30
2016,02,09,16,49,16.20
2016,02,09,16,50,16.20
2016,02,09,16,51,16.10
2016,02,09,16,52,16.10
2016,02,09,16,53,16.00
2016,02,09,16,54,15.90
2016,02,09,16,55,15.90
2016,02,09,16,56,15.80
2016,02,09,16,57,15.80
2016,02,09,16,58,15.70
2016,02,09,16,59,15.70
2016,02,09,17,00,15.70
2016,02,09,17,01,15.60
2016,02,09,17,02,15.60
2016,02,09,17,03,15.50
2016,02,09,17,04,15.40
2016,02,09,17,05,15.40
2016,02,09,17,06,15.30
2016,02,09,17,07,15.30
2016,02,09,17,08,15.30
2016,02,09,17,09,15.20
2016,02,09,17,10,15.20
2016,02,09,17,11,15.20
2016,02,09,17,12,15.10
2016,02,09,17,13,15.10
2016,02,09,17,14,15.10
2016,02,09,17,15,15.00
2016,02,09,17,16,15.00
2016,02,09,17,17,14.90
2016,02,09,17,18,14.90
2016,02,09,17,19,14.80
2016,02,09,17,20,14.80
2016,02,09,17,21,14.70
2016,02,09,17,22,14.70
2016,02,09,17,23,14.70
2016,02,09,17,24,14.60
2016,02,09,17,25,14.60
2016,02,09,17,26,14.50
2016,02,09,17,27,14.40
2016,02,09,17,28,14.30
2016,02,09,17,29,14.30
2016,02,09,17,30,14.20
2016,02,09,17,31,14.20
2016,02,09,17,32,14.10
2016,02,09,17,33,14.10
2016,02,09,17,34,14.00
2016,02,09,17,35,14.00
2016,02,09,17,36,14.00
2016,02,09,17,37,13.90
2016,02,09,17,38,13.90
2016,02,09,17,39,13.90
2016,02,09,17,40,13.80
2016,02,09,17,41,13.80
2016,02,09,17,42,13.80
2016,02,09,17,43,13.80